Weather History for KDLS - May, 2013

Change the Weather History Date:

Sunday, May 26, 2013

  Actual Average Record
Temperature  
Mean Temperature 62 °F -  
Max Temperature 71 °F 75 °F 93 °F (2001)
Min Temperature 54 °F 50 °F 37 °F (1964)
Degree Days  
Heating Degree Days 3    
Growing Degree Days 12 (Base 50)    
Moisture  
Dew Point 48 °F    
Average Humidity 66    
Maximum Humidity 90    
Minimum Humidity 39    
Precipitation  
Precipitation 0.17 in - - ()
Sea Level Pressure  
Sea Level Pressure 29.96 in    
Wind  
Wind Speed 7 mph (NW)    
Max Wind Speed 21 mph    
Max Gust Speed 29 mph    
Visibility 10 miles    
Events Rain    
Averages and records for this station are not official NWS values.
T = Trace of Precipitation, MM = Missing Value Source: NWS Daily Summary

Daily Weather History Graph

Daily Weather History Graph

Search for Another Location

Airport or City:

Trip Planner

Search our weather history database for the weather conditions in past years. The results will help you decide how hot, cold, wet, or windy it might be!

Date:

Astronomy

May. 26, 2013 Rise Set
Actual Time 5:22 AM PDT 8:41 PM PDT
Civil Twilight 4:46 AM PDT 9:17 PM PDT
Nautical Twilight 3:59 AM PDT 10:05 PM PDT
Astronomical Twilight 2:59 AM PDT 11:05 PM PDT
Moon 10:31 PM PDT (5/26) 6:58 AM PDT (5/26)
Length of Visible Light 16h 31m
Length of Day
15h 18m
Waning Gibbous, 96% of the Moon is Illuminated
May 26
Waning Gibbous
May 31
Last Quarter
Jun 8
New
Jun 16
First Quarter
Jun 23
Full

Hourly Weather History & Observations

Time (PDT) Temp. Dew Point Humidity Pressure Visibility Wind Dir Wind Speed Gust Speed Precip Events Conditions
12:53 AM 57.0 °F 48.0 °F 72% 29.92 in 10.0 mi West 3.5 mph - 0.00 in Rain Light Rain
1:53 AM 55.0 °F 48.9 °F 80% 29.92 in 10.0 mi Calm Calm - 0.00 in   Overcast
2:53 AM 57.0 °F 48.0 °F 72% 29.93 in 10.0 mi Calm Calm - N/A   Overcast
3:53 AM 54.0 °F 48.0 °F 80% 29.94 in 10.0 mi NW 13.8 mph - 0.00 in Rain Light Rain
4:53 AM 54.0 °F 48.9 °F 83% 29.96 in 10.0 mi NW 5.8 mph - 0.01 in Rain Light Rain
5:53 AM 54.0 °F 50.0 °F 86% 29.96 in 5.0 mi Calm Calm - 0.06 in Rain Light Rain
6:53 AM 54.0 °F 51.1 °F 90% 29.97 in 7.0 mi South 3.5 mph - 0.04 in Rain Light Rain
7:53 AM 55.0 °F 52.0 °F 89% 29.97 in 9.0 mi Calm Calm - 0.05 in Rain Light Rain
8:01 AM 55.4 °F 51.8 °F 88% 29.97 in 10.0 mi SSE 4.6 mph - 0.00 in Rain Light Rain
8:53 AM 57.0 °F 51.1 °F 81% 29.98 in 10.0 mi Calm Calm - 0.01 in Rain Light Rain
9:53 AM 57.9 °F 52.0 °F 81% 29.99 in 10.0 mi Calm Calm - 0.00 in   Overcast
10:53 AM 61.0 °F 53.1 °F 75% 29.99 in 10.0 mi North 8.1 mph - N/A   Overcast
11:53 AM 64.9 °F 50.0 °F 58% 29.97 in 10.0 mi NNW 12.7 mph 18.4 mph N/A   Partly Cloudy
12:53 PM 66.9 °F 48.0 °F 51% 29.96 in 10.0 mi NNW 13.8 mph - N/A   Clear
1:53 PM 70.0 °F 45.0 °F 41% 29.95 in 10.0 mi NW 17.3 mph 24.2 mph N/A   Clear
2:53 PM 70.0 °F 46.0 °F 42% 29.95 in 10.0 mi WNW 19.6 mph 28.8 mph N/A   Clear
3:53 PM 70.0 °F 44.1 °F 39% 29.95 in 10.0 mi NW 17.3 mph 24.2 mph N/A   Partly Cloudy
4:53 PM 69.1 °F 46.0 °F 44% 29.95 in 10.0 mi NW 20.7 mph 27.6 mph N/A   Scattered Clouds
5:53 PM 66.9 °F 46.0 °F 47% 29.96 in 10.0 mi NW 18.4 mph 25.3 mph N/A   Clear
6:53 PM 66.0 °F 46.0 °F 48% 29.97 in 10.0 mi NW 16.1 mph 21.9 mph N/A   Partly Cloudy
7:53 PM 62.1 °F 46.0 °F 56% 29.98 in 10.0 mi NW 15.0 mph - N/A   Partly Cloudy
8:53 PM 60.1 °F 46.0 °F 60% 29.99 in 10.0 mi NW 12.7 mph - N/A   Clear
9:53 PM 60.1 °F 46.0 °F 60% 29.99 in 10.0 mi West 8.1 mph - N/A   Mostly Cloudy
10:53 PM 59.0 °F 46.0 °F 62% 30.00 in 10.0 mi WNW 10.4 mph 17.3 mph N/A   Scattered Clouds
11:53 PM 55.9 °F 46.0 °F 69% 29.98 in 10.0 mi WSW 8.1 mph - N/A   Clear